THOR ABLESTAR DEB, 559

Orbit data source: Space-Track

THOR ABLESTAR DEB, 559 is space debris in LEO originally from a launch on Thu, 29 Jun 1961 UTC launched from the Air Force Eastern Test Range (AFETR). Debris objects in space refer to the collection of defunct objects orbiting the Earth. Examples of debris include non-operational satellites, rocket bodies, and fragments generated from explosions, collisions, or faulty payload assembly.

Loading next visibility...
Identifier
559, 1961-015GR
Orbit
LEO
Country
Flag of USUS
Related business
Manufacturer
Unknown
Mission
Spacecraft
Bus & Motor
Unknown
Mass
Unknown
Launch date (UTC)
1961-06-29 (64 years ago)
Launch vehicle
Unknown
Launch site
Air Force Eastern Test Range (AFETR)
Object type
Payload
Rocket body
Debris
Shape & HBR
Unknown
Radar Cross Section
Small (<0.1 m²)

Expand to show TLE details & history
Last TLE update: 21 hours ago

TLE from 21 hours ago
0 THOR ABLESTAR DEB
1 00559U 61015GR  25261.16201859  .00005417  00000-0  95211-3 0  9998
2 00559  66.6020 334.7244 0046625 348.0375  11.9630 14.67710676309761
Epoch: 2025-09-18T03:53Z
TLE epoch observation values (Epoch: 2025-09-18T03:53:18.406Z)
Latitude
0.00004°
Longitude
-80.92985°
Altitude
638.384 km
Speed
7.557 km/s
True Right ascension
22h 18m 53s
True Declination
0° 00' 00"
Sunlit
Object was in full shadow at epoch
Visualization orbit readout
Latitude
Unknown
Longitude
Unknown
Altitude
Unknown
Speed
Unknown
Apparent Right ascension
Unknown
Apparent Declination
Unknown
Sunlit
N/A
Visualization observer readout
Local Sidereal Time
18:00:43
Azimuth
Unknown
Elevation
Unknown
Doppler factor
Unknown
Orbital elements
Apogee altitude
699.591 km
Perigee altitude
633.897 km
Semi-major axis
7,044.881 km
Eccentricity
0.00466
Inclination
66.602°
RAAN
334.7244°
Arg. of periapsis
348.0375°
True anomaly
12.07438°
Mean anomaly
11.963°
Eccentric anomaly
12.01863°
Mean motion
3.67056 °/min
Orbital period
98.08 mins
BSTAR
0.00095211
Loading maneuver chart data...
Computing Atmospheric mass density...

Documentation

Showing up to 5 results
|